sat.trackr.live / text

‹ back to catalog

2024-199S

NORAD 61751 · 2024-199S

PAYLOAD ACTIVE UNKNOWN

§ Identity

Operator
Country
TBD
Launch date
2024-11-04
Launch site
VOSTO
Launch vehicle
Mass (kg)
RCS (m²)

External: N2YO · Heavens-Above · Gunter

§ Orbital elements

Epoch: 2026-05-25T04:01:20.311680Z

Period
93.73 min
Inclination
97.3033°
Eccentricity
0.0010735
Mean motion
15.36364171 rev/d
Perigee alt
449.5 km
Apogee alt
464.2 km
Semi-major
6,835.0 km
B*
2.5128e-4
RAAN
14.7933°
Arg perigee
39.2774°
Mean anomaly
320.9247°
Rev number
13,360

§ Raw data

2024-199S1 61751U 24199S   26145.16759620  .00008847  00000+0  25128-3 0  99962 61751  97.3033  14.7933 0010735  39.2774 320.9247 15.36364171133609

JSON: /api/v1/satellites/61751 · /tle

For live sub-satellite position, see the globe view (requires WebGL).

§ Visibility from observer

Set your observer location to see the next 7 days of passes ≥ 10°. The values pass through the URL so the page stays shareable.

No JS? Fill the form by hand. The geolocation button needs JavaScript.